Flag for Norway Weather past 2 weeks in Florø, Norway

Now
37 °F

Passing clouds.


Feels Like: 34 °F
Forecast: 37 / 41 °F
Wind: 5 mph from East

Location: Floro

Current Time: Mar 30, 2015 at 11:32:44 AM

Latest Report: Mar 30, 2015 at 10:50 AM


Visibility: N/A

Pressure: 29.12 "Hg

Humidity: 93%

Dew point: 36 °F

Location of FlorøLocation

Historic Weather in Florø — Graph

°F

Florø temperature yesterday

Maximum temperature yesterday: 45 °F (at 12:50 PM)
Minimum temperature yesterday: 36 °F (at 11:20 PM)
Average temperature yesterday: 41 °F

Past Weeks' High & Low Weather Summary

 TemperatureHumidityPressure
High52 °F (Mar 17, 12:50 PM)100% (Mar 19, 2:50 PM)30.77 "Hg (Mar 19, 2:50 PM)
Low32 °F (Mar 25, 3:50 AM)26% (Mar 21, 11:50 AM)28.97 "Hg (Mar 28, 11:50 PM)
Average41 °F72%29.98 "Hg
* Reported Mar 15 9:20 AM — Mar 30 10:20 AM, Florø, Weather by CustomWeather, © 2015

Note: Actual official high and low records may vary slightly from our data, if they occured in-between our weather recording intervals... More about our weather records

Advertising

Florø weather history for previous 24 hours

 ConditionsComfort  
Time TempWeatherWind HumidityBarometerVisibility
10:20 AM
Mon, Mar 30
36 °FPassing clouds.6 mph100%29.09 "HgN/A
9:50 AM36 °FPassing clouds.6 mph93%29.09 "HgN/A
9:20 AM34 °FSleet. Fog.6 mph100%29.09 "HgN/A
8:50 AM34 °FFog.7 mph100%29.09 "HgN/A
8:20 AM34 °FFog.7 mph100%29.09 "HgN/A
7:50 AM32 °FPassing clouds.7 mph100%29.06 "HgN/A
6:50 AM32 °FPassing clouds.6 mph93%29.03 "HgN/A
6:20 AM32 °FPassing clouds.6 mph100%29.03 "HgN/A
5:50 AM34 °FPassing clouds.6 mph93%29.03 "HgN/A
5:20 AM34 °FChilly.6 mph93%29.03 "HgN/A
4:50 AM34 °FChilly.3 mph93%29.00 "HgN/A
4:20 AM34 °FChilly.3 mph93%29.00 "HgN/A
3:50 AM34 °FChilly.5 mph93%29.00 "HgN/A
3:20 AM34 °FChilly.6 mph93%29.00 "HgN/A
2:50 AM36 °FChilly.6 mph87%29.00 "HgN/A
2:20 AM36 °FPassing clouds.6 mph93%29.00 "HgN/A
1:50 AM36 °FClear.8 mph93%29.00 "HgN/A
1:20 AM36 °FClear.9 mph93%29.00 "HgN/A
12:50 AM36 °FChilly.10 mph93%29.00 "HgN/A
12:20 AM36 °FChilly.10 mph93%29.00 "HgN/A
11:50 PM
Sun, Mar 29
36 °FPassing clouds.8 mph93%29.00 "HgN/A
11:20 PM36 °FSprinkles. Passing clouds.6 mph87%29.00 "HgN/A
10:50 PM39 °FSprinkles. Passing clouds.8 mph87%29.00 "HgN/A
10:20 PM37 °FPassing clouds.3 mph93%29.00 "HgN/A
9:50 PM37 °FPassing clouds.5 mph87%29.00 "HgN/A
9:20 PM39 °FPassing clouds.7 mph87%29.00 "HgN/A
8:50 PM39 °FPassing clouds.7 mph87%29.00 "HgN/A
8:20 PM41 °FScattered showers. Passing clouds.8 mph81%29.00 "HgN/A
7:50 PM41 °FScattered showers. Passing clouds.8 mph81%29.00 "HgN/A
7:20 PM41 °FPassing clouds.9 mph76%29.00 "HgN/A
6:50 PM43 °FPassing clouds.9 mph76%29.00 "HgN/A
6:20 PM43 °FPassing clouds.6 mph76%29.00 "HgN/A
5:50 PM43 °FPassing clouds.8 mph71%29.03 "HgN/A
5:20 PM45 °FPassing clouds.9 mph71%29.03 "HgN/A
4:50 PM45 °FScattered clouds.9 mph71%29.03 "HgN/A
4:20 PM45 °FScattered showers. Scattered clouds.9 mph71%29.03 "HgN/A
3:50 PM43 °FScattered showers. Scattered clouds.9 mph76%29.06 "HgN/A
3:20 PM45 °FScattered showers. Scattered clouds.9 mph71%29.06 "HgN/A
2:50 PM43 °FScattered showers. Scattered clouds.8 mph76%29.06 "HgN/A
2:20 PM45 °FScattered showers. Scattered clouds.7 mph76%29.06 "HgN/A
1:50 PM45 °FScattered showers. Scattered clouds.8 mph76%29.06 "HgN/A
1:20 PM43 °FScattered showers. Scattered clouds.9 mph81%29.06 "HgN/A
12:50 PM45 °FScattered showers. Scattered clouds.10 mph76%29.06 "HgN/A
12:20 PM43 °FScattered showers. Scattered clouds.12 mph81%29.06 "HgN/A
11:50 AM39 °FScattered showers. Scattered clouds.9 mph81%29.06 "HgN/A
11:20 AM39 °FScattered showers. Scattered clouds.12 mph81%29.06 "HgN/A
Weather by CustomWeather, © 2015

See weather overviewHow to use our weather pages